User: anonymous   Login
Location: Cucq
(50.4773°N, 1.6202°E)
Time: 14:05:18
(UTC+00:00)
Language:

ERBS - Orbit

View from above orbital plane
View from above orbital plane
View from above satellite
View from above satellite

Ground track
Ground track

The orbit data is extracted from the following two-line orbital elements,

1 15354U 84108B   20294.59252174 +.00004264 +00000-0 +81633-4 0  9992
2 15354 057.0055 251.9126 0004231 317.0016 043.0711 15.50305654987235
Epoch (UTC): 20 October 2020 14:13:13
Eccentricity: 0.0004231
inclination: 57.0055°
perigee height: 413 km
apogee height: 419 km
right ascension of ascending node: 251.9126°
argument of perigee: 317.0016°
revolutions per day: 15.50305654
mean anomaly at epoch: 43.0711°
orbit number at epoch: 98723

The dashed part of the orbit path shows where the satellite is in the earth's shadow,  

DLR